Stations météo

réclame
Mon MeteoGroup
Kiruna Airport, Suède (2044): Température de l'air & dewpoint: 12.09.2019 12:00:00 - 18.09.2019 12:00:00 (CEST)Kiruna Airport, Suède (2044): Vitesse du vent: 12.09.2019 12:00:00 - 18.09.2019 12:00:00 (CEST)Kiruna Airport, Suède (2044): Direction du vent: 12.09.2019 12:00:00 - 18.09.2019 12:00:00 (CEST)Kiruna Airport, Suède (2044): reduced air pressure: 12.09.2019 12:00:00 - 18.09.2019 12:00:00 (CEST)Kiruna Airport, Suède (2044): visibility: 12.09.2019 12:00:00 - 18.09.2019 12:00:00 (CEST)
Date & Time tt [°C] td [°C] ff [km/h] ff [knt] dd ppp [hPa] vv [km]
18.09.2019 12:00:00 2,0 2,0 9 5 ENE - 6
18.09.2019 11:00:00 1,7 1,6 5 3 E 1010,2 4,0
18.09.2019 10:00:00 1,6 1,5 5 3 ENE 1009,7 4,0
18.09.2019 09:00:00 1,3 1,2 4 2 ENE 1009,5 8
18.09.2019 08:00:00 1,3 1,2 4 2 ENE 1009,1 10
18.09.2019 07:00:00 1,6 1,6 0 0 N 1008,8 7
18.09.2019 06:00:00 1,6 1,6 0 0 N 1008,5 10
18.09.2019 05:00:00 1,4 1,4 0 0 N 1008,5 10
18.09.2019 04:00:00 1,5 1,5 0 0 N 1008,3 10
18.09.2019 03:00:00 1,7 1,6 0 0 N 1008,2 10
18.09.2019 02:00:00 1,5 1,4 0 0 N 1008,3 10
18.09.2019 01:00:00 1,8 1,7 0 0 N 1008,1 10
18.09.2019 00:00:00 2,3 2,0 0 0 N 1007,9 10
17.09.2019 23:00:00 2,5 2,4 2 1 NNE 1007,6 10
17.09.2019 22:00:00 3,0 2,6 4 2 NNE 1007,3 10
17.09.2019 21:00:00 3,2 2,5 4 2 N 1006,8 10
17.09.2019 20:00:00 3,3 2,6 0 0 N 1006,5 10
17.09.2019 19:00:00 3,7 2,5 16 9 ENE 1006,1 9
17.09.2019 18:00:00 4,6 2,9 9 5 NNE 1005,5 10
17.09.2019 17:00:00 5,3 2,6 9 5 ENE 1005,0 10
17.09.2019 16:00:00 5,4 3,6 13 7 ENE 1004,7 10
17.09.2019 15:00:00 4,7 3,5 8 4 NNE 1004,5 10
17.09.2019 14:00:00 5,0 3,7 15 8 ENE 1004,1 10
17.09.2019 13:00:00 5,7 3,4 11 6 NE 1003,5 7
17.09.2019 12:00:00 5,2 4,2 11 6 NNE 1003,2 4,0
17.09.2019 11:00:00 4,4 3,7 11 6 NNE 1003,0 4,0
17.09.2019 10:00:00 4,1 3,4 9 5 N 1002,7 2,0
17.09.2019 09:00:00 3,4 3,0 9 5 N 1002,5 2,4
17.09.2019 08:00:00 2,9 2,0 11 6 NNE 1002,2 10
17.09.2019 07:00:00 2,6 1,6 8 4 N 1001,9 10
17.09.2019 06:00:00 2,4 1,5 11 6 NNE 1001,9 10
17.09.2019 05:00:00 2,5 1,5 11 6 NNE 1001,7 10
17.09.2019 04:00:00 2,6 1,4 16 9 NE 1001,5 10
17.09.2019 03:00:00 2,8 1,9 15 8 NE 1001,5 10
17.09.2019 02:00:00 3,2 2,3 11 6 NE 1001,2 10
17.09.2019 01:00:00 3,5 2,9 8 4 NNE 1000,9 10
17.09.2019 00:00:00 3,7 3,3 9 5 NNE 1000,7 10
16.09.2019 23:00:00 4,0 3,4 11 6 NNE 1000,4 10
16.09.2019 22:00:00 4,2 3,6 11 6 NNE 1000,2 10
16.09.2019 21:00:00 3,9 3,5 13 7 N 1000,0 3,4
16.09.2019 20:00:00 3,7 3,3 9 5 N 1000,1 10
16.09.2019 19:00:00 3,7 3,0 9 5 N 1000,2 10
16.09.2019 18:00:00 3,9 2,9 9 5 N 1000,0 10
16.09.2019 17:00:00 4,2 3,2 13 7 NNE 999,9 10
16.09.2019 16:00:00 4,8 3,1 15 8 NNE 999,6 10
16.09.2019 15:00:00 5,7 2,9 15 8 NNE 999,2 10
16.09.2019 14:00:00 6,9 1,2 16 9 N 998,7 10
16.09.2019 13:00:00 7,1 0,1 13 7 NNE 998,5 10
16.09.2019 12:00:00 6,5 -0,5 13 7 N 998,6 10
16.09.2019 11:00:00 5,4 -0,7 11 6 NNE 998,8 10
16.09.2019 10:00:00 4,2 0,2 9 5 NNE 998,8 10
16.09.2019 09:00:00 3,2 0,4 5 3 N 998,9 10
16.09.2019 08:00:00 0,7 -0,5 0 0 N 999,1 10
16.09.2019 07:00:00 -1,8 -2,2 4 2 - 999,3 10
16.09.2019 06:00:00 -1,5 -2,1 4 2 - 999,2 10
16.09.2019 05:00:00 -1,5 -2,3 5 3 SSW 999,1 10
16.09.2019 04:00:00 -1,2 -1,9 4 2 SSW 999,0 10
16.09.2019 03:00:00 -0,7 -1,8 4 2 NW 998,8 10
16.09.2019 02:00:00 0,8 -0,2 4 2 NW 998,7 10
16.09.2019 01:00:00 2,4 0,8 8 4 NNE 998,1 10
16.09.2019 00:00:00 3,1 1,6 5 3 NNE 997,4 10
15.09.2019 23:00:00 3,9 1,9 9 5 NE 996,7 10
15.09.2019 22:00:00 4,3 2,2 9 5 E 996,3 10
15.09.2019 21:00:00 4,5 2,7 11 6 E 996,0 6
15.09.2019 20:00:00 5,0 2,7 5 3 E 995,5 10
15.09.2019 19:00:00 5,2 2,7 5 3 SE 995,2 10
15.09.2019 18:00:00 6,0 3,0 11 6 E 994,5 10
15.09.2019 17:00:00 6,1 2,9 11 6 E 994,3 10
15.09.2019 16:00:00 6,1 3,1 16 9 E 994,2 10
15.09.2019 15:00:00 6,0 3,8 16 9 E 994,3 10
15.09.2019 14:00:00 4,9 3,9 16 9 E 994,6 10
15.09.2019 13:00:00 4,3 3,6 13 7 ESE 994,9 10
15.09.2019 12:00:00 3,7 3,7 13 7 ESE 995,2 1,5
15.09.2019 11:00:00 3,9 2,9 11 6 SE 995,4 10
15.09.2019 10:00:00 3,5 2,3 16 9 SE 995,7 10
15.09.2019 09:00:00 2,8 1,9 8 4 ESE 996,0 2,5
15.09.2019 08:00:00 1,3 1,3 5 3 NNE 997,0 0,8
15.09.2019 07:00:00 0,2 0,2 5 3 N 997,7 10
15.09.2019 06:00:00 0,0 -0,1 4 2 - 998,5 10
15.09.2019 05:00:00 -0,1 -0,2 4 2 - 999,5 9
15.09.2019 04:00:00 -0,7 -1,1 5 3 - 1000,3 10
15.09.2019 03:00:00 -0,6 -1,2 5 3 N 1001,2 10
15.09.2019 02:00:00 -0,9 -2,2 5 3 S 1002,6 10
15.09.2019 01:00:00 2,3 0,4 8 4 S 1003,3 10
15.09.2019 00:00:00 0,7 -0,8 5 3 - 1004,2 10
14.09.2019 23:00:00 0,1 -0,9 2 1 SW 1004,9 10
14.09.2019 22:00:00 1,5 -0,3 4 2 WSW 1005,4 10
14.09.2019 21:00:00 3,1 0,2 8 4 SW 1006,4 10
14.09.2019 20:00:00 5,5 0,3 8 4 SSW 1006,3 10
14.09.2019 19:00:00 6,5 0,0 5 3 SSW 1006,4 10
14.09.2019 18:00:00 8,3 -1,2 9 5 SW 1006,6 10
14.09.2019 17:00:00 9,4 -1,1 13 7 SW 1006,9 10
14.09.2019 16:00:00 9,4 -0,8 15 8 SW 1007,3 10
14.09.2019 15:00:00 9,7 -0,8 11 6 W 1007,2 10
14.09.2019 14:00:00 8,9 -1,0 16 9 SW 1007,4 10
14.09.2019 13:00:00 8,9 -2,1 11 6 SSW 1007,4 10
14.09.2019 12:00:00 8,7 -0,9 9 5 SW 1007,6 10
14.09.2019 11:00:00 7,9 -0,1 11 6 SW 1007,7 10
14.09.2019 10:00:00 7,1 0,1 8 4 SW 1007,9 10
14.09.2019 09:00:00 3,4 0,4 11 6 SW 1008,6 10
14.09.2019 08:00:00 1,7 -0,1 9 5 SSW 1008,8 10
14.09.2019 07:00:00 0,2 -0,7 11 6 SSW 1009,1 10
14.09.2019 06:00:00 0,2 -0,9 9 5 WSW 1009,1 10
14.09.2019 05:00:00 1,1 -0,4 11 6 SW 1009,0 10
14.09.2019 04:00:00 0,8 -0,4 8 4 W 1008,9 10
14.09.2019 03:00:00 1,3 -0,2 8 4 SW 1008,6 10
14.09.2019 02:00:00 1,5 -0,3 5 3 - 1008,4 10
14.09.2019 01:00:00 3,2 0,4 0 0 N 1007,9 10
14.09.2019 00:00:00 3,5 0,7 8 4 NW 1007,6 10
13.09.2019 23:00:00 3,5 0,9 9 5 NW 1007,2 10
13.09.2019 22:00:00 3,9 0,9 8 4 NNE 1006,9 10
13.09.2019 21:00:00 4,7 1,0 13 7 NNW 1006,4 10
13.09.2019 20:00:00 5,3 1,2 21 11 NNW 1005,7 10
13.09.2019 19:00:00 6,0 1,9 22 12 NNW 1005,1 10
13.09.2019 18:00:00 6,7 1,4 26 14 NNW 1004,3 10
13.09.2019 17:00:00 7,7 1,3 18 10 NNW 1003,5 10
13.09.2019 16:00:00 8,0 1,6 24 13 N 1002,7 10
13.09.2019 15:00:00 9,3 3,5 16 9 NNW 1001,8 10
13.09.2019 14:00:00 10,0 3,5 13 7 N 1000,9 10
13.09.2019 13:00:00 10,3 2,9 15 8 NW 1000,3 10
13.09.2019 12:00:00 8,7 3,3 8 4 NW 1000,2 10
13.09.2019 11:00:00 8,4 4,0 9 5 WNW 999,9 10
13.09.2019 10:00:00 7,3 4,3 5 3 NW 999,8 10
13.09.2019 09:00:00 5,7 4,7 5 3 SW 999,7 10
13.09.2019 08:00:00 3,9 3,6 5 3 WSW 999,6 10
13.09.2019 07:00:00 3,3 3,2 4 2 WSW 999,3 10
13.09.2019 06:00:00 2,5 2,4 8 4 SSW 999,4 10
13.09.2019 05:00:00 2,1 2,0 0 0 N 999,4 10
13.09.2019 04:00:00 3,2 3,1 5 3 SW 999,2 3,7
13.09.2019 03:00:00 3,4 3,3 0 0 N 999,3 10
13.09.2019 02:00:00 4,1 4,0 2 1 - 999,2 10
13.09.2019 01:00:00 3,9 3,6 4 2 WSW 999,3 10
13.09.2019 00:00:00 4,5 4,2 5 3 SW 999,0 10
12.09.2019 23:00:00 4,3 4,2 0 0 N 999,1 10
12.09.2019 22:00:00 4,2 4,1 0 0 N 999,1 0,5
12.09.2019 21:00:00 7,0 6,7 0 0 N 998,4 10
12.09.2019 20:00:00 8,3 7,1 0 0 N 998,0 10
12.09.2019 19:00:00 9,7 8,1 8 4 NNE 997,5 10
12.09.2019 18:00:00 11,6 5,7 15 8 W 996,5 10
12.09.2019 17:00:00 12,3 7,8 9 5 W 996,1 10
12.09.2019 16:00:00 12,0 7,9 8 4 W 995,9 10
12.09.2019 15:00:00 11,4 9,0 13 7 W 996,1 10
12.09.2019 14:00:00 11,1 9,2 16 9 WSW 995,8 10
12.09.2019 13:00:00 11,0 9,6 15 8 SSW 995,6 10
12.09.2019 12:00:00 10,9 8,6 13 7 SSW 996,0 10

tt = Température de l'air
td = dewpoint
ff = Vitesse du vent
dd = Direction du vent
ppp = reduced air pressure
vv = visibility

stations d'obs. à proximité